Погода в Урюме

Россия / Забайкальский край     53°10′05″N   118°06′41″E
темп.,
°C
ветер,
м/с
пор.,
м/с
влажн.,
%
обл.,
%
осадки,
мм/ч
давл.,
гПа
погр.,
м
22 апреля, чт
чт2200:00+4ссз3568100 0.0 1010398
03:00+1ссз2375100 0.0 1012136
06:00−1ссз2477100 0.0 101695
09:00+3ссз3444100 0.0 1019847
12:00+5с33355 0.0 10201398
15:00+6с33288 0.0 10211735
18:00+4ссз4532100 0.0 10241331
21:000ссз3639100 0.0 1029477
23 апреля, пт
пт2300:00−3с22495 0.0 103441
03:00−5ссв2667100 0.0 1038252
06:00−5с2454100 0.0 1039110
09:00−2св2328100 0.0 10391266
12:00+4св13215 0.0 10381870
15:00+5ссз341799 0.0 10352224
18:00+4ссз35205 0.0 10351723
21:00−1сз113375 0.0 103610
24 апреля, сб
сб2400:00−3зсз22415 0.0 103812
03:00−5зсз22420 0.0 103815
06:00−5зсз22430 0.0 103822
09:00+4сз25240 0.0 1035753
12:00+9сз47220 0.0 10321634
15:00+11ссз462015 0.0 10291931
18:00+10ссз3521100 0.0 10271658
21:00+4ссз223942 0.0 102911
25 апреля, вс
вс2500:00+1ссз2146100 0.0 103010
03:000ссв1150100 0.0 102910
06:000св1154100 0.0 102710
09:00+4вюв1241100 0.0 1024320
12:00+9ю2528100 0.1 10191109
15:00+12ююз5727100 0.1 10141879
18:00+6зюз3674100 0.2 1014780
21:00+5ссв2280100 0.3 101247
26 апреля, пн
пн2600:00+4св1182100 0.0 100826
03:00+3всв1184100 0.0 100510
06:00+3с2296100 1.7 1002225
09:00+3ссз1298100 4.3 1001352
12:00+3сз0395100 1.5 1000435
15:00+8с1362100 1.8 9981260
18:00+7ссз355592 0.1 9981275
21:00+3сз227489 0.1 100015